• In Germany
  • List of Countries
  • For 7 days
  • Water Temperature
  • Satellite Maps
  • Weather Map
  • Weather Widgets
  • user-avatar
    Login

    Hourly Weather Prutz

    Today, 28 June, Wednesday

    Time Temperature Precipitation Wind Pressure Humidity
    00:00 +13°C° 0 mm 2 mps 629 mmHg 94%
    01:00 +12°C° 0 mm 2 mps 628 mmHg 93%
    02:00 +12°C° 0.1 mm 2 mps 628 mmHg 93%
    03:00 +12°C° 0.1 mm 2 mps 628 mmHg 92%
    04:00 +12°C° 0.1 mm 2 mps 628 mmHg 92%
    05:00 +13°C° 0.1 mm 2 mps 628 mmHg 89%
    06:00 +14°C° 0.1 mm 2 mps 628 mmHg 86%
    07:00 +14°C° 0 mm 3 mps 628 mmHg 86%
    08:00 +15°C° 0.6 mm 2 mps 628 mmHg 84%
    09:00 +16°C° 0.6 mm 2 mps 628 mmHg 82%
    10:00 +17°C° 0.6 mm 2 mps 628 mmHg 79%
    11:00 +17°C° 1.1 mm 2 mps 628 mmHg 79%
    12:00 +17°C° 1.1 mm 2 mps 628 mmHg 79%
    13:00 +17°C° 1.1 mm 2 mps 628 mmHg 78%
    14:00 +17°C° 1.3 mm 2 mps 628 mmHg 79%
    15:00 +17°C° 1.3 mm 2 mps 627 mmHg 80%
    16:00 +16°C° 1.3 mm 2 mps 627 mmHg 81%
    17:00 +15°C° 0.9 mm 2 mps 626 mmHg 85%
    18:00 +15°C° 0.9 mm 1 mps 626 mmHg 88%
    19:00 +14°C° 0.9 mm 1 mps 625 mmHg 91%
    20:00 +13°C° 0.5 mm 1 mps 625 mmHg 93%
    21:00 +11°C° 0.5 mm 1 mps 624 mmHg 95%
    22:00 +10°C° 0.5 mm 1 mps 624 mmHg 97%
    23:00 +10°C° 0.4 mm 1 mps 623 mmHg 97%

    Tomorrow, 29 June, Thursday

    Time Temperature Precipitation Wind Pressure Humidity
    00:00 +10°C° 0.4 mm 1 mps 623 mmHg 97%
    01:00 +10°C° 0.4 mm 1 mps 623 mmHg 97%
    02:00 +10°C° 0.6 mm 1 mps 623 mmHg 97%
    03:00 +10°C° 0.6 mm 1 mps 623 mmHg 97%
    04:00 +10°C° 0.6 mm 1 mps 623 mmHg 98%
    05:00 +10°C° 0.7 mm 1 mps 623 mmHg 96%
    06:00 +10°C° 0.7 mm 1 mps 623 mmHg 95%
    07:00 +10°C° 0.7 mm 1 mps 624 mmHg 94%
    08:00 +11°C° 0.9 mm 1 mps 624 mmHg 91%
    09:00 +12°C° 0.9 mm 1 mps 625 mmHg 88%
    10:00 +12°C° 0.9 mm 1 mps 625 mmHg 85%
    11:00 +13°C° 0.8 mm 1 mps 626 mmHg 82%
    12:00 +14°C° 0.8 mm 1 mps 626 mmHg 79%
    13:00 +15°C° 0.8 mm 1 mps 626 mmHg 76%
    14:00 +15°C° 1.4 mm 1 mps 626 mmHg 78%
    15:00 +14°C° 1.4 mm 1 mps 626 mmHg 79%
    16:00 +14°C° 1.4 mm 1 mps 626 mmHg 81%
    17:00 +13°C° 2 mm 1 mps 626 mmHg 86%
    18:00 +12°C° 2 mm 1 mps 626 mmHg 90%
    19:00 +10°C° 2 mm 1 mps 626 mmHg 94%
    20:00 +10°C° 1.5 mm 1 mps 626 mmHg 95%
    21:00 +9°C° 1.5 mm 1 mps 626 mmHg 96%
    22:00 +8°C° 1.5 mm 1 mps 626 mmHg 97%
    23:00 +8°C° 1.3 mm 1 mps 627 mmHg 97%

    Day after tomorrow, 30 June, Friday

    Time Temperature Precipitation Wind Pressure Humidity
    00:00 +8°C° 1.3 mm 1 mps 627 mmHg 97%
    01:00 +8°C° 1.3 mm 1 mps 627 mmHg 96%
    02:00 +7°C° 1.3 mm 1 mps 627 mmHg 96%
    03:00 +7°C° 1.3 mm 1 mps 627 mmHg 96%
    04:00 +7°C° 1.3 mm 1 mps 627 mmHg 95%
    05:00 +7°C° 0.2 mm 1 mps 627 mmHg 94%
    06:00 +8°C° 0.2 mm 1 mps 628 mmHg 93%
    07:00 +9°C° 0.2 mm 1 mps 628 mmHg 91%
    08:00 +10°C° 0.1 mm 1 mps 629 mmHg 83%
    09:00 +12°C° 0.1 mm 1 mps 629 mmHg 75%
    10:00 +14°C° 0.1 mm 2 mps 630 mmHg 67%
    11:00 +14°C° 0.6 mm 2 mps 630 mmHg 67%
    12:00 +14°C° 0.6 mm 2 mps 630 mmHg 68%
    13:00 +14°C° 0.6 mm 2 mps 630 mmHg 69%
    14:00 +14°C° 1 mm 2 mps 630 mmHg 71%
    15:00 +14°C° 1 mm 2 mps 630 mmHg 73%
    16:00 +14°C° 1 mm 1 mps 630 mmHg 75%
    17:00 +13°C° 1 mm 1 mps 630 mmHg 80%
    18:00 +12°C° 1 mm 1 mps 630 mmHg 84%
    19:00 +11°C° 1 mm 1 mps 630 mmHg 89%
    20:00 +9°C° 0.8 mm 1 mps 630 mmHg 92%
    21:00 +8°C° 0.8 mm 1 mps 630 mmHg 94%
    22:00 +7°C° 0.8 mm 1 mps 629 mmHg 97%
    23:00 +6°C° 0.3 mm 1 mps 629 mmHg 97%

    1 July, Saturday

    Time Temperature Precipitation Wind Pressure Humidity
    00:00 +6°C° 0.3 mm 1 mps 629 mmHg 97%
    01:00 +6°C° 0.3 mm 1 mps 629 mmHg 97%
    02:00 +6°C° 0.2 mm 1 mps 629 mmHg 97%
    03:00 +4°C° 0.2 mm 0 mps 629 mmHg 96%
    04:00 +4°C° 0.2 mm 0 mps 629 mmHg 96%
    05:00 +5°C° 0.2 mm 0 mps 629 mmHg 94%
    06:00 +7°C° 0.2 mm 0 mps 630 mmHg 91%
    07:00 +8°C° 0.2 mm 0 mps 630 mmHg 88%
    08:00 +10°C° 0.2 mm 1 mps 631 mmHg 83%
    09:00 +12°C° 0.2 mm 1 mps 631 mmHg 77%
    10:00 +13°C° 0.2 mm 1 mps 632 mmHg 72%
    11:00 +13°C° 0.6 mm 1 mps 632 mmHg 72%
    12:00 +14°C° 0.6 mm 1 mps 632 mmHg 71%
    13:00 +14°C° 0.6 mm 1 mps 632 mmHg 71%
    14:00 +14°C° 1.1 mm 1 mps 632 mmHg 75%
    15:00 +13°C° 1.1 mm 2 mps 632 mmHg 79%
    16:00 +13°C° 1.1 mm 2 mps 632 mmHg 83%
    17:00 +12°C° 1.3 mm 2 mps 632 mmHg 87%
    18:00 +10°C° 1.3 mm 2 mps 632 mmHg 91%
    19:00 +9°C° 1.3 mm 2 mps 631 mmHg 95%
    20:00 +9°C° 0.5 mm 1 mps 632 mmHg 96%
    21:00 +9°C° 0.5 mm 1 mps 632 mmHg 97%
    22:00 +8°C° 0.5 mm 1 mps 632 mmHg 97%
    23:00 +8°C° 0.3 mm 1 mps 632 mmHg 97%

    2 July, Sunday

    Time Temperature Precipitation Wind Pressure Humidity
    00:00 +8°C° 0.3 mm 1 mps 632 mmHg 97%
    01:00 +7°C° 0.3 mm 1 mps 632 mmHg 98%
    02:00 +7°C° 0.6 mm 1 mps 633 mmHg 98%
    03:00 +7°C° 0.6 mm 1 mps 633 mmHg 98%
    04:00 +6°C° 0.6 mm 2 mps 633 mmHg 98%
    05:00 +7°C° 0.4 mm 2 mps 633 mmHg 97%
    06:00 +7°C° 0.4 mm 2 mps 634 mmHg 96%
    07:00 +7°C° 0.4 mm 2 mps 634 mmHg 96%
    08:00 +8°C° 0.4 mm 2 mps 634 mmHg 91%
    09:00 +9°C° 0.4 mm 2 mps 635 mmHg 87%
    10:00 +10°C° 0.4 mm 2 mps 635 mmHg 83%
    11:00 +12°C° 0.1 mm 2 mps 636 mmHg 78%
    12:00 +13°C° 0.1 mm 2 mps 636 mmHg 73%
    13:00 +15°C° 0.1 mm 2 mps 636 mmHg 68%
    14:00 +15°C° 0 mm 2 mps 637 mmHg 64%
    15:00 +16°C° 0 mm 2 mps 637 mmHg 61%
    16:00 +16°C° 0 mm 2 mps 637 mmHg 57%
    17:00 +15°C° 0 mm 2 mps 637 mmHg 63%
    18:00 +14°C° 0 mm 2 mps 637 mmHg 69%
    19:00 +13°C° 0 mm 2 mps 637 mmHg 75%
    20:00 +10°C° 0 mm 2 mps 637 mmHg 81%
    21:00 +9°C° 0 mm 1 mps 636 mmHg 88%
    22:00 +8°C° 0 mm 1 mps 636 mmHg 94%
    23:00 +7°C° 0 mm 1 mps 636 mmHg 94%

    3 July, Monday

    Time Temperature Precipitation Wind Pressure Humidity
    00:00 +7°C° 0 mm 1 mps 636 mmHg 95%
    01:00 +7°C° 0 mm 1 mps 636 mmHg 95%
    02:00 +7°C° 0 mm 1 mps 636 mmHg 95%
    03:00 +6°C° 0 mm 1 mps 636 mmHg 96%
    04:00 +6°C° 0 mm 1 mps 635 mmHg 96%
    05:00 +8°C° 0 mm 1 mps 636 mmHg 92%
    06:00 +9°C° 0 mm 1 mps 637 mmHg 88%
    07:00 +11°C° 0 mm 1 mps 637 mmHg 84%
    08:00 +12°C° 0 mm 1 mps 638 mmHg 76%
    09:00 +14°C° 0 mm 1 mps 639 mmHg 68%
    10:00 +16°C° 0 mm 1 mps 639 mmHg 60%
    11:00 +18°C° 0 mm 1 mps 639 mmHg 56%
    12:00 +18°C° 0 mm 2 mps 639 mmHg 52%
    13:00 +19°C° 0 mm 2 mps 639 mmHg 47%
    14:00 +19°C° 0 mm 2 mps 639 mmHg 49%
    15:00 +18°C° 0 mm 2 mps 639 mmHg 51%
    16:00 +18°C° 0 mm 2 mps 639 mmHg 53%
    17:00 +17°C° 0.1 mm 2 mps 638 mmHg 62%
    18:00 +16°C° 0.1 mm 2 mps 638 mmHg 72%
    19:00 +14°C° 0.1 mm 1 mps 638 mmHg 81%
    20:00 +12°C° 0 mm 1 mps 637 mmHg 86%
    21:00 +11°C° 0 mm 1 mps 637 mmHg 92%
    22:00 +9°C° 0 mm 1 mps 637 mmHg 97%
    23:00 +8°C° 0 mm 1 mps 637 mmHg 97%
    Show more